Location: ?????
(55.6500°N, 37.2500°E)
Time: 17:06:00
(UTC+00:00)

Meteor 2-6 Rocket - Pass Details

Date: 19 May 2025
Orbit: 804 x 914 km, 81.3° (Epoch: 20 June)

Event Time Altitude Azimuth Distance (km) Brightness Sun altitude
Exits shadow 19:48:01 - 195° (SSW) 2,831 6.5 -11.5°
Reaches altitude 10° 19:48:44 10° 196° (SSW) 2,562 6.3 -11.5°
Maximum altitude 19:54:35 83° 283° (WNW) 891 4.4 -11.9°
Drops below altitude 10° 20:00:19 10° 14° (NNE) 2,507 7.6 -12.2°
Sets 20:02:43 0° 15° (NNE) 3,431 8.3 -12.3°
